sat.trackr.live / text

‹ back to catalog

STARLINK-33919

NORAD 63699 · 2025-087C

PAYLOAD ACTIVE UNKNOWN

§ Identity

Operator
Country
US
Launch date
2025-04-28
Launch site
AFWTR
Launch vehicle
Mass (kg)
RCS (m²)

Purposes: comms

External: N2YO · Heavens-Above · Gunter

§ Orbital elements

Epoch: 2026-09-20T13:06:42.800544Z

Period
93.85 min
Inclination
53.1606°
Eccentricity
0.0001209
Mean motion
15.34406403 rev/d
Perigee alt
461.9 km
Apogee alt
463.5 km
Semi-major
6,840.8 km
B*
4.5793e-4
RAAN
33.7219°
Arg perigee
83.6331°
Mean anomaly
276.4809°
Rev number
7,904

§ Raw data

STARLINK-339191 63699U 25087C   26263.54632871  .00015130  00000+0  45793-3 0  99902 63699  53.1606  33.7219 0001209  83.6331 276.4809 15.34406403 79043

JSON: /api/v1/satellites/63699 · /tle

For live sub-satellite position, see the globe view (requires WebGL).

§ Visibility from observer

Set your observer location to see the next 7 days of passes ≥ 10°. The values pass through the URL so the page stays shareable.

No JS? Fill the form by hand. The geolocation button needs JavaScript.